[[{"header":{"parameterUnit":"m.s-1","parameterCategory":1,"la1":30.2991,"la2":30.254,"lo1":-89.0895,"lo2":-89.0444,"dy":0.0017,"dx":0.0017,"nx":28,"ny":28,"refTime":"2025-04-03T09:00:00:Z","depth":0,"parameterNumber":2,"parameterNumberName":"U-component_of_WINDS"},"data":[0,0,0,0,0,0,0,0,0,0,0,0,0,0,0,0,0,0,0,0,0,0,0,0,0,0,0,0,0,0,0,0,0,0,0,0,0,0,0,0,0,0,0,0,0,0,0,0,0,0,0,0,0,0,0,0,0,0,-2.8512,-2.8513,0,-2.8613,-2.8614,-2.8616,-2.8661,-2.8661,-2.8661,-2.8661,-2.8765,-2.8768,-2.877,0,0,0,0,0,0,0,0,0,0,0,0,0,-2.8357,-2.836,-2.8511,-2.8513,-2.8514,-2.8613,-2.8615,-2.8616,-2.8661,-2.8661,-2.8661,-2.8661,-2.8764,-2.8767,-2.8771,0,0,0,0,0,0,0,0,0,0,0,0,0,-2.8438,-2.8361,-2.8511,-2.8549,-2.8553,-2.8613,-2.8615,-2.8616,-2.8661,-2.8661,-2.8661,-2.8661,-2.8763,-2.8767,-2.8771,-2.8801,0,0,-2.8784,-2.8786,0,0,0,0,0,0,0,0,-2.8433,-2.8444,-2.8542,-2.8546,-2.8551,-2.8624,-2.8598,-2.8678,-2.8661,-2.862,-2.8661,-2.8661,-2.8718,-2.8726,-2.8746,-2.8806,-2.8811,-2.8785,-2.8787,-2.8789,-2.879,0,0,0,0,0,0,0,-2.8428,-2.844,-2.8552,-2.8543,-2.8549,-2.8561,-2.8572,-2.8614,-2.8669,-2.8624,-2.8627,-2.8639,-2.8721,-2.8741,-2.8748,-2.8812,-2.8785,-2.8788,-2.8791,-2.8793,-2.8904,-2.8905,0,0,0,0,0,0,-2.8416,-2.8435,-2.8549,-2.8555,-2.8491,-2.8563,-2.8576,-2.8601,-2.8669,-2.8679,-2.8639,-2.864,-2.8734,-2.8743,-2.8752,-2.8793,-2.8789,-2.8793,-2.8796,-2.8904,-2.8904,-2.8905,0,0,0,0,0,0,-2.8413,-2.8426,-2.8544,-2.8496,-2.8512,-2.8566,-2.8594,-2.8603,-2.8624,-2.868,-2.869,-2.865,-2.8734,-2.8746,-2.8789,-2.8797,-2.8795,-2.8799,-2.8903,-2.8904,-2.8904,-2.8873,0,0,0,0,0,0,-2.8408,-2.8424,-2.8436,-2.8496,-2.8514,-2.8579,-2.8594,-2.8605,-2.8631,-2.8634,-2.8693,-2.8702,-2.8735,-2.8782,-2.8793,-2.8803,-2.8802,-2.8903,-2.8904,-2.8904,-2.8874,-2.8873,-2.8872,0,0,0,0,0,-2.8402,-2.8423,-2.8436,-2.845,-2.853,-2.858,-2.859,-2.8627,-2.8632,-2.8644,-2.868,-2.8701,-2.8794,-2.8786,-2.8799,-2.881,-2.8903,-2.8903,-2.8904,-2.8874,-2.8873,-2.8872,0,0,0,0,0,0,-2.8362,-2.8431,-2.8447,-2.8488,-2.8527,-2.8587,-2.8604,-2.8625,-2.8664,-2.8665,-2.871,-2.8723,-2.8762,-2.8791,-2.878,-2.8844,-2.885,-2.8854,-2.8823,-2.8823,-2.8821,-2.8814,-2.8806,0,0,0,0,0,-2.8358,-2.8393,-2.8451,-2.8481,-2.8501,-2.8549,-2.8572,-2.8597,-2.864,-2.8657,-2.8697,-2.8738,-2.8777,-2.8801,-2.884,-2.8879,-2.8892,-2.8893,-2.8891,-2.889,-2.8893,-2.8916,-2.8917,-2.8907,-2.8907,-2.8907,0,0,-2.835,-2.8392,-2.8411,-2.8475,-2.8508,-2.8543,-2.8563,-2.8599,-2.8625,-2.8663,-2.8706,-2.8736,-2.8785,-2.8826,-2.8846,-2.8851,-2.8899,-2.8891,-2.889,-2.8893,-2.8917,-2.8918,-2.8919,-2.8908,-2.8908,-2.8908,0,0,-2.8353,-2.8388,-2.8418,-2.8452,-2.8503,-2.8535,-2.8542,-2.8599,-2.8621,-2.8665,-2.8694,-2.8727,-2.8792,-2.8826,-2.8852,-2.8869,-2.889,-2.8881,-2.8875,-2.8898,-2.8898,-2.8899,-2.8906,-2.8908,-2.8883,-2.8883,-2.8883,0,-2.8337,-2.8391,-2.843,-2.8465,-2.8492,-2.8529,-2.8559,-2.859,-2.8651,-2.8669,-2.8674,-2.8758,-2.8793,-2.8843,-2.8848,-2.8867,-2.8877,-2.8874,-2.8895,-2.8896,-2.8898,-2.8905,-2.8907,-2.8882,-2.8882,-2.8882,-2.8882,0,-2.8368,-2.8405,-2.8422,-2.8481,-2.851,-2.8542,-2.8588,-2.8613,-2.8636,-2.8667,-2.8712,-2.8756,-2.8805,-2.8819,-2.8842,-2.8873,-2.8874,-2.8886,-2.8894,-2.8897,-2.8904,-2.8907,-2.888,-2.888,-2.8881,-2.8881,0,0,-2.8348,-2.8429,-2.8435,-2.8462,-2.8522,-2.8551,-2.8585,-2.8634,-2.8654,-2.8696,-2.8726,-2.8781,-2.8793,-2.8823,-2.885,-2.8869,-2.8881,-2.888,-2.8881,-2.8878,-2.8919,-2.8909,-2.8911,-2.8895,-2.8896,-2.8896,-2.8915,0,-2.836,-2.8422,-2.846,-2.8507,-2.8542,-2.8578,-2.8608,-2.8648,-2.8679,-2.8713,-2.8748,-2.8786,-2.8799,-2.8817,-2.8838,-2.8875,-2.889,-2.8874,-2.8924,-2.8925,-2.891,-2.8915,-2.8905,-2.892,-2.8918,-2.8918,-2.8919,0,-2.8381,-2.8422,-2.8473,-2.853,-2.8546,-2.8572,-2.862,-2.8652,-2.8699,-2.872,-2.8753,-2.878,-2.8819,-2.8824,-2.8877,-2.8866,-2.8889,-2.891,-2.8912,-2.8918,-2.8922,-2.8921,-2.8926,-2.8928,-2.8923,-2.8923,-2.8923,0,-2.8362,-2.843,-2.8469,-2.8492,-2.8558,-2.8576,-2.8605,-2.8651,-2.8678,-2.872,-2.8738,-2.8783,-2.8808,-2.8843,-2.8883,-2.8882,-2.8933,-2.8941,-2.8952,-2.8951,-2.896,-2.8959,-2.8968,-2.8975,-2.8975,-2.8975,-2.8975,0,-2.8371,-2.8401,-2.8462,-2.8486,-2.8521,-2.8564,-2.8597,-2.8629,-2.867,-2.8702,-2.8736,-2.8764,-2.8815,-2.885,-2.8881,-2.8921,-2.8932,-2.8951,-2.8959,-2.8948,-2.8945,-2.8963,-2.8963,-2.8975,-2.8975,-2.8975,-2.8975,0,-2.8355,-2.8397,-2.8442,-2.8502,-2.8518,-2.8541,-2.8593,-2.8618,-2.8651,-2.8691,-2.8702,-2.8754,-2.8798,-2.8841,-2.8899,-2.892,-2.896,-2.897,-2.8944,-2.8948,-2.8957,-2.8956,-2.8978,-2.8983,-2.8986,-2.8986,-2.8985,0,-2.8357,-2.8381,-2.8444,-2.8468,-2.8496,-2.8533,-2.8561,-2.8604,-2.8632,-2.8688,-2.8706,-2.8752,-2.8791,-2.8859,-2.8903,-2.8948,-2.896,-2.8964,-2.8967,-2.8955,-2.896,-2.8958,-2.8961,-2.8963,-2.8963,-2.8962,-2.8962,0,-2.8358,-2.8378,-2.8416,-2.8462,-2.8495,-2.8533,-2.8573,-2.859,-2.8641,-2.8671,-2.8716,-2.8746,-2.8806,-2.8852,-2.8902,-2.8932,-2.8956,-2.8961,-2.8966,-2.8955,-2.8939,-2.8948,-2.8941,-2.8961,-2.8961,-2.8961,-2.8961,-2.8961,-2.8352,-2.8375,-2.8423,-2.8465,-2.85,-2.8536,-2.8563,-2.86,-2.8638,-2.869,-2.8714,-2.8759,-2.8806,-2.8876,-2.8906,-2.8943,-2.8949,-2.8956,-2.8958,-2.8959,-2.8957,-2.8933,-2.8952,-2.8952,-2.8953,-2.8953,-2.8953,0,-2.8355,-2.8387,-2.8426,-2.848,-2.8513,-2.8533,-2.8578,-2.8605,-2.8644,-2.8686,-2.8724,-2.8776,-2.8821,-2.8868,-2.8915,-2.8936,-2.8948,-2.8947,-2.8946,-2.8952,-2.8948,-2.8939,-2.8936,-2.8936,-2.8936,-2.8936,-2.8936,-2.8936,-2.836,-2.84,-2.8426,-2.8484,-2.8517,-2.8562,-2.8586,-2.862,-2.8654,-2.871,-2.8747,-2.8778,-2.8822,-2.8874,-2.8916,-2.8928,-2.8944,-2.894,-2.8956,-2.8951,-2.8952,-2.8953,-2.8945,-2.8943,-2.8943,-2.8957,-2.8957,-2.8957]},{"header":{"parameterUnit":"m.s-1","parameterCategory":1,"la1":30.2991,"la2":30.254,"lo1":-89.0895,"lo2":-89.0444,"dy":0.0017,"dx":0.0017,"nx":28,"ny":28,"refTime":"2025-04-03T09:00:00:Z","depth":0,"parameterNumber":3,"parameterNumberName":"V-component_of_WINDS"},"data":[0,0,0,0,0,0,0,0,0,0,0,0,0,0,0,0,0,0,0,0,0,0,0,0,0,0,0,0,0,0,0,0,0,0,0,0,0,0,0,0,0,0,0,0,0,0,0,0,0,0,0,0,0,0,0,0,0,0,5.7396,5.7397,0,5.7467,5.7468,5.7469,5.7472,5.7471,5.7471,5.747,5.754,5.7543,5.7546,0,0,0,0,0,0,0,0,0,0,0,0,0,5.7264,5.7267,5.7396,5.7397,5.7398,5.7467,5.7468,5.7469,5.7472,5.7471,5.747,5.7469,5.754,5.7543,5.7546,0,0,0,0,0,0,0,0,0,0,0,0,0,5.7327,5.7268,5.7396,5.7408,5.741,5.7467,5.7468,5.7469,5.7473,5.7471,5.747,5.7469,5.7539,5.7542,5.7546,5.7595,0,0,5.7558,5.756,0,0,0,0,0,0,0,0,5.7323,5.7332,5.7405,5.7407,5.7409,5.746,5.7447,5.7511,5.7473,5.7449,5.747,5.7468,5.7514,5.752,5.7536,5.7599,5.7602,5.7559,5.7561,5.7563,5.7564,0,0,0,0,0,0,0,5.7319,5.7329,5.7424,5.7406,5.7409,5.741,5.7418,5.7459,5.7487,5.7451,5.7451,5.746,5.7515,5.7532,5.7538,5.7603,5.7559,5.7562,5.7565,5.7566,5.7714,5.7715,0,0,0,0,0,0,5.7312,5.7325,5.7422,5.7426,5.7363,5.7413,5.7422,5.7445,5.7487,5.7492,5.7461,5.7459,5.7526,5.7533,5.754,5.7604,5.7563,5.7567,5.7569,5.7712,5.7714,5.7716,0,0,0,0,0,0,5.731,5.7321,5.7419,5.7376,5.7388,5.7417,5.7442,5.7447,5.7464,5.7495,5.7499,5.7473,5.7525,5.7535,5.7583,5.7606,5.7568,5.7572,5.771,5.7713,5.7715,5.7729,0,0,0,0,0,0,5.7306,5.732,5.7338,5.7376,5.7391,5.746,5.7444,5.7449,5.7471,5.747,5.7507,5.7512,5.7525,5.7577,5.7587,5.7611,5.7575,5.7708,5.7711,5.7714,5.7727,5.7732,5.7736,0,0,0,0,0,5.7301,5.7338,5.7339,5.7351,5.7414,5.7461,5.7469,5.7484,5.7473,5.7492,5.7513,5.7511,5.7602,5.7582,5.7593,5.7619,5.7707,5.7711,5.7714,5.7725,5.7731,5.7736,0,0,0,0,0,0,5.73,5.7343,5.7345,5.7395,5.7425,5.7462,5.7486,5.7489,5.7522,5.752,5.7536,5.7544,5.7593,5.761,5.7587,5.7671,5.7653,5.7659,5.7658,5.7664,5.7668,5.7663,5.7578,0,0,0,0,0,5.7306,5.7341,5.7376,5.7417,5.7432,5.7457,5.7477,5.7487,5.7518,5.753,5.7553,5.7583,5.7619,5.7642,5.7676,5.7729,5.7739,5.7753,5.7757,5.7761,5.7766,5.7799,5.7807,5.7727,5.7727,5.7727,0,0,5.7318,5.7346,5.7366,5.7418,5.7442,5.7478,5.7467,5.7505,5.7532,5.7535,5.7583,5.7602,5.7637,5.7689,5.7712,5.7705,5.779,5.7765,5.7768,5.7771,5.7804,5.7811,5.7818,5.7729,5.7729,5.7729,0,0,5.7359,5.7382,5.7421,5.7446,5.7484,5.7501,5.751,5.7548,5.7561,5.761,5.7614,5.7647,5.7707,5.7733,5.7754,5.781,5.7811,5.782,5.7844,5.7876,5.7883,5.7888,5.7911,5.7919,5.7825,5.7825,5.7825,0,5.7369,5.7424,5.744,5.748,5.7504,5.751,5.7551,5.7574,5.762,5.7637,5.7627,5.7706,5.7729,5.779,5.7804,5.7819,5.7832,5.7816,5.788,5.7886,5.7892,5.7914,5.7922,5.7826,5.7826,5.7826,5.7826,0,5.7436,5.7475,5.7501,5.7549,5.7575,5.7615,5.7638,5.7663,5.7671,5.7689,5.7741,5.777,5.7812,5.7827,5.7833,5.7889,5.7883,5.7877,5.786,5.79,5.7922,5.793,5.7828,5.7827,5.7827,5.7827,0,0,5.7476,5.7535,5.7545,5.7568,5.7612,5.7642,5.7683,5.7726,5.7749,5.7781,5.7818,5.7871,5.7867,5.789,5.79,5.7929,5.7975,5.7919,5.7921,5.7931,5.8042,5.8048,5.8057,5.7976,5.7978,5.7979,5.804,0,5.7524,5.7598,5.7616,5.768,5.7718,5.7726,5.7762,5.7794,5.7813,5.7848,5.7868,5.7907,5.7897,5.7912,5.7941,5.7963,5.7998,5.7959,5.8012,5.8013,5.8004,5.8068,5.8073,5.8129,5.8048,5.8049,5.805,0,5.7589,5.7626,5.7694,5.7737,5.7754,5.7786,5.7829,5.7862,5.7899,5.7911,5.794,5.7948,5.7993,5.7974,5.8037,5.8011,5.8033,5.8048,5.8051,5.8057,5.8035,5.8078,5.8147,5.8156,5.8063,5.8062,5.8061,0,5.7616,5.7682,5.7733,5.7752,5.7802,5.7825,5.7847,5.7883,5.7909,5.7947,5.7964,5.8006,5.8029,5.8061,5.8082,5.8065,5.8145,5.8126,5.8157,5.8157,5.8174,5.8173,5.825,5.8186,5.8185,5.8185,5.8185,0,5.7668,5.771,5.7746,5.7777,5.7825,5.7846,5.7894,5.7916,5.7948,5.7985,5.7994,5.8028,5.8052,5.809,5.8106,5.8158,5.8167,5.818,5.8184,5.818,5.8179,5.8196,5.8193,5.8188,5.8187,5.8187,5.8186,0,5.7705,5.7731,5.7787,5.7832,5.7844,5.7878,5.7916,5.7948,5.7968,5.8015,5.8027,5.8059,5.8105,5.8128,5.8184,5.8195,5.8255,5.8255,5.8243,5.8245,5.8276,5.8274,5.8368,5.8383,5.8307,5.8307,5.8308,0,5.7738,5.7771,5.782,5.7847,5.787,5.7911,5.7939,5.7961,5.799,5.8037,5.8063,5.811,5.8148,5.8221,5.825,5.8294,5.8297,5.8327,5.8303,5.83,5.8301,5.8299,5.8304,5.8331,5.8332,5.8333,5.8333,0,5.7794,5.7806,5.7846,5.7892,5.7926,5.7962,5.7998,5.8019,5.8048,5.808,5.8128,5.8158,5.8217,5.8264,5.8311,5.8334,5.834,5.8341,5.8351,5.8348,5.8341,5.8348,5.8257,5.8338,5.8338,5.8337,5.8337,5.8337,5.7832,5.7864,5.7905,5.795,5.798,5.8015,5.8048,5.8074,5.8115,5.8166,5.8177,5.8229,5.8268,5.8332,5.8357,5.8398,5.8392,5.8406,5.841,5.8414,5.8417,5.8333,5.8407,5.8406,5.8406,5.8406,5.8406,0,5.7891,5.7919,5.7961,5.8013,5.8049,5.8052,5.8094,5.8124,5.817,5.8207,5.8246,5.8303,5.8349,5.8383,5.8431,5.8458,5.8462,5.847,5.8469,5.8475,5.8418,5.8406,5.8466,5.8466,5.8466,5.8466,5.8466,5.8466,5.7926,5.7981,5.7999,5.807,5.8097,5.8149,5.8173,5.8206,5.8236,5.83,5.834,5.8362,5.8399,5.845,5.8494,5.8503,5.8521,5.8529,5.8539,5.8485,5.8479,5.8473,5.8461,5.8533,5.8533,5.8593,5.8593,5.8594]}]]